QPF
0.05 0.06 0.06 0.05 0.06 0.06 0.06 0.05 0.05 0.04 0.03 0.04 0.04 0.03 0.04 0.04 0.04 0.03 0.03 0.03 0.03 0.03 0.03 0.03 0.03 0.03 0.03 0.03 0.02 0.02 0.02 0.03 0.04 0.06 0.08 0.11 0.13 0.14
0.05 0.05 0.05 0.06 0.07 0.06 0.05 0.05 0.06 0.05 0.04 0.04 0.04 0.04 0.04 0.02 0.03 0.03 0.04 0.04 0.04 0.05 0.05 0.05 0.05 0.05 0.04 0.04 0.04 0.03 0.03 0.03 0.03 0.05 0.06 0.07 0.08 0.10
0.05 0.05 0.06 0.07 0.10 0.10 0.07 0.06 0.06 0.05 0.05 0.04 0.04 0.04 0.04 0.04 0.04 0.04 0.04 0.04 0.04 0.04 0.05 0.06 0.06 0.06 0.06 0.06 0.06 0.05 0.04 0.04 0.04 0.05 0.05 0.06 0.06 0.07
0.04 0.05 0.05 0.06 0.08 0.12 0.10 0.07 0.06 0.06 0.05 0.04 0.04 0.03 0.04 0.04 0.05 0.05 0.03 0.02 0.03 0.03 0.04 0.04 0.05 0.05 0.05 0.05 0.04 0.04 0.04 0.04 0.05 0.06 0.06 0.06 0.06 0.06
0.04 0.04 0.04 0.03 0.05 0.07 0.09 0.08 0.06 0.05 0.04 0.04 0.03 0.04 0.03 0.04 0.05 0.04 0.04 0.04 0.03 0.03 0.04 0.04 0.04 0.04 0.04 0.04 0.03 0.02 0.02 0.02 0.03 0.05 0.06 0.07 0.07 0.06
0.02 0.03 0.03 0.04 0.04 0.05 0.07 0.08 0.07 0.07 0.06 0.05 0.04 0.04 0.05 0.04 0.05 0.04 0.04 0.05 0.04 0.03 0.03 0.03 0.04 0.03 0.03 0.03 0.03 0.02 0.01 0.02 0.04 0.06 0.06 0.05 0.07 0.07
0.04 0.04 0.04 0.05 0.06 0.06 0.06 0.08 0.08 0.07 0.07 0.06 0.05 0.05 0.04 0.04 0.04 0.04 0.04 0.05 0.05 0.05 0.04 0.04 0.04 0.04 0.03 0.03 0.03 0.02 0.02 0.02 0.04 0.05 0.04 0.04 0.05 0.05
0.08 0.07 0.05 0.05 0.06 0.05 0.04 0.05 0.05 0.04 0.04 0.05 0.05 0.05 0.05 0.06 0.06 0.06 0.06 0.05 0.05 0.05 0.05 0.05 0.04 0.05 0.05 0.05 0.04 0.03 0.02 0.02 0.03 0.03 0.03 0.03 0.04 0.04
0.06 0.06 0.05 0.04 0.05 0.05 0.03 0.02 0.02 0.03 0.03 0.04 0.04 0.04 0.05 0.07 0.08 0.07 0.08 0.08 0.07 0.07 0.06 0.05 0.05 0.05 0.04 0.04 0.04 0.03 0.03 0.02 0.02 0.03 0.03 0.03 0.04 0.04
0.04 0.03 0.04 0.04 0.04 0.03 0.02 0.02 0.03 0.04 0.04 0.04 0.06 0.06 0.06 0.07 0.08 0.11 0.11 0.12 0.11 0.08 0.08 0.07 0.04 0.05 0.05 0.04 0.03 0.03 0.03 0.02 0.02 0.02 0.02 0.03 0.03 0.04
0.03 0.03 0.03 0.03 0.04 0.03 0.03 0.03 0.03 0.04 0.03 0.03 0.04 0.05 0.05 0.06 0.07 0.10 0.10 0.12 0.12 0.09 0.08 0.09 0.06 0.05 0.05 0.05 0.03 0.03 0.03 0.03 0.02 0.03 0.03 0.03 0.03 0.04
0.03 0.03 0.03 0.04 0.05 0.04 0.03 0.03 0.03 0.04 0.04 0.03 0.04 0.04 0.04 0.03 0.04 0.05 0.06 0.07 0.09 0.09 0.07 0.07 0.08 0.07 0.07 0.06 0.04 0.04 0.04 0.03 0.02 0.03 0.03 0.03 0.02 0.02
0.02 0.02 0.02 0.02 0.03 0.03 0.05 0.03 0.02 0.02 0.02 0.02 0.04 0.04 0.04 0.04 0.03 0.03 0.04 0.05 0.07 0.08 0.07 0.06 0.07 0.07 0.08 0.06 0.05 0.04 0.04 0.04 0.03 0.02 0.02 0.02 0.02 0.02
0.01 0.01 0.01 0.01 0.01 0.02 0.04 0.03 0.02 0.02 0.01 0.02 0.04 0.04 0.04 0.04 0.04 0.04 0.04 0.05 0.07 0.07 0.05 0.05 0.07 0.07 0.07 0.06 0.05 0.05 0.05 0.05 0.05 0.04 0.04 0.04 0.03 0.03
0.02 0.01 0.02 0.01 0.01 0.01 0.02 0.03 0.02 0.02 0.02 0.04 0.05 0.04 0.04 0.04 0.05 0.05 0.06 0.06 0.06 0.04 0.03 0.04 0.06 0.07 0.07 0.07 0.06 0.06 0.07 0.07 0.06 0.07 0.07 0.07 0.07 0.05
0.02 0.03 0.03 0.02 0.02 0.02 0.02 0.03 0.03 0.02 0.03 0.04 0.05 0.04 0.04 0.04 0.05 0.07 0.07 0.07 0.06 0.06 0.05 0.05 0.06 0.07 0.07 0.07 0.07 0.07 0.08 0.08 0.07 0.08 0.08 0.07 0.08 0.09
0.02 0.04 0.05 0.04 0.04 0.05 0.03 0.03 0.04 0.03 0.03 0.03 0.04 0.04 0.05 0.05 0.06 0.07 0.07 0.07 0.08 0.08 0.07 0.06 0.06 0.07 0.08 0.09 0.09 0.08 0.08 0.08 0.08 0.08 0.08 0.08 0.08 0.09
0.02 0.03 0.03 0.03 0.03 0.03 0.03 0.03 0.03 0.03 0.04 0.04 0.04 0.04 0.04 0.04 0.05 0.05 0.05 0.05 0.06 0.08 0.09 0.09 0.09 0.10 0.10 0.10 0.09 0.08 0.08 0.07 0.07 0.08 0.08 0.08 0.08 0.09
0.02 0.02 0.02 0.02 0.02 0.02 0.02 0.02 0.02 0.02 0.03 0.03 0.04 0.05 0.05 0.05 0.07 0.06 0.05 0.04 0.04 0.05 0.07 0.09 0.10 0.11 0.11 0.11 0.10 0.07 0.07 0.08 0.08 0.09 0.08 0.08 0.08 0.08
0.02 0.03 0.02 0.01 0.02 0.02 0.02 0.02 0.02 0.02 0.03 0.04 0.05 0.06 0.06 0.05 0.05 0.05 0.05 0.04 0.05 0.05 0.05 0.08 0.10 0.11 0.11 0.10 0.10 0.10 0.07 0.07 0.08 0.09 0.09 0.09 0.10 0.09
0.02 0.02 0.01 0.01 0.02 0.02 0.02 0.02 0.02 0.02 0.03 0.04 0.05 0.05 0.05 0.04 0.04 0.04 0.03 0.03 0.05 0.06 0.06 0.08 0.10 0.11 0.11 0.12 0.12 0.11 0.11 0.08 0.07 0.09 0.09 0.10 0.10 0.10
0.01 0.01 0.01 0.01 0.01 0.02 0.02 0.02 0.02 0.02 0.03 0.03 0.04 0.04 0.03 0.03 0.03 0.03 0.03 0.03 0.05 0.06 0.06 0.06 0.07 0.07 0.08 0.10 0.11 0.10 0.10 0.10 0.10 0.08 0.07 0.08 0.10 0.10
0.00 0.00 0.00 0.00 0.01 0.01 0.01 0.01 0.01 0.02 0.02 0.02 0.02 0.02 0.03 0.02 0.02 0.03 0.03 0.04 0.04 0.04 0.05 0.05 0.04 0.05 0.05 0.06 0.07 0.07 0.07 0.08 0.11 0.11 0.10 0.07 0.07 0.08
MSLP
1009.27 1009.02 1008.72 1008.37 1007.96 1007.50 1006.99 1006.47 1005.95 1005.45 1005.00 1004.60 1004.28 1004.01 1003.80 1003.63 1003.48 1003.33 1003.17 1003.00 1002.82 1002.65 1002.50 1002.41 1002.39 1002.47 1002.65 1002.93 1003.30 1003.75 1004.25 1004.79 1005.35 1005.92 1006.50 1007.08 1007.66 1008.25
1008.66 1008.44 1008.19 1007.90 1007.55 1007.15 1006.71 1006.24 1005.75 1005.29 1004.85 1004.45 1004.11 1003.83 1003.58 1003.37 1003.17 1002.97 1002.76 1002.53 1002.30 1002.08 1001.89 1001.76 1001.70 1001.72 1001.86 1002.09 1002.42 1002.83 1003.30 1003.81 1004.35 1004.91 1005.48 1006.05 1006.63 1007.22
1008.08 1007.89 1007.69 1007.45 1007.18 1006.85 1006.47 1006.06 1005.63 1005.20 1004.79 1004.39 1004.04 1003.72 1003.43 1003.17 1002.91 1002.65 1002.38 1002.10 1001.83 1001.57 1001.34 1001.16 1001.06 1001.05 1001.15 1001.34 1001.63 1002.01 1002.45 1002.94 1003.47 1004.02 1004.57 1005.14 1005.70 1006.27
1007.62 1007.45 1007.29 1007.10 1006.88 1006.61 1006.31 1005.96 1005.58 1005.19 1004.79 1004.40 1004.03 1003.68 1003.34 1003.02 1002.71 1002.40 1002.08 1001.75 1001.44 1001.14 1000.87 1000.66 1000.53 1000.49 1000.54 1000.70 1000.96 1001.30 1001.71 1002.18 1002.69 1003.22 1003.76 1004.31 1004.85 1005.40
1007.32 1007.16 1007.01 1006.86 1006.68 1006.46 1006.20 1005.90 1005.56 1005.20 1004.82 1004.43 1004.04 1003.66 1003.29 1002.93 1002.58 1002.22 1001.86 1001.51 1001.16 1000.83 1000.54 1000.30 1000.13 1000.04 1000.06 1000.17 1000.38 1000.68 1001.06 1001.50 1001.99 1002.50 1003.02 1003.55 1004.07 1004.58
1007.16 1007.00 1006.85 1006.70 1006.54 1006.35 1006.12 1005.85 1005.54 1005.19 1004.82 1004.43 1004.04 1003.64 1003.25 1002.87 1002.49 1002.11 1001.74 1001.37 1001.00 1000.65 1000.34 1000.07 999.86 999.73 999.69 999.75 999.91 1000.16 1000.49 1000.89 1001.34 1001.82 1002.32 1002.82 1003.32 1003.80
1007.10 1006.92 1006.76 1006.60 1006.43 1006.25 1006.03 1005.77 1005.47 1005.13 1004.77 1004.38 1003.99 1003.59 1003.20 1002.81 1002.43 1002.06 1001.68 1001.31 1000.95 1000.60 1000.26 999.97 999.72 999.54 999.44 999.43 999.51 999.70 999.97 1000.31 1000.72 1001.16 1001.63 1002.11 1002.58 1003.03
1007.07 1006.86 1006.67 1006.49 1006.31 1006.11 1005.88 1005.62 1005.33 1005.00 1004.64 1004.26 1003.87 1003.49 1003.11 1002.73 1002.37 1002.02 1001.67 1001.32 1000.96 1000.61 1000.27 999.95 999.67 999.43 999.26 999.18 999.19 999.29 999.49 999.77 1000.12 1000.52 1000.95 1001.40 1001.84 1002.28
1007.02 1006.78 1006.56 1006.35 1006.14 1005.92 1005.68 1005.42 1005.12 1004.79 1004.44 1004.08 1003.70 1003.33 1002.97 1002.63 1002.29 1001.97 1001.65 1001.33 1001.00 1000.66 1000.32 999.98 999.66 999.38 999.15 998.99 998.92 998.94 999.06 999.27 999.55 999.90 1000.29 1000.70 1001.12 1001.54
1006.92 1006.65 1006.41 1006.17 1005.93 1005.70 1005.45 1005.17 1004.88 1004.56 1004.22 1003.86 1003.51 1003.15 1002.81 1002.49 1002.18 1001.89 1001.60 1001.31 1001.00 1000.68 1000.35 1000.00 999.66 999.34 999.06 998.84 998.70 998.65 998.69 998.82 999.03 999.32 999.66 1000.03 1000.42 1000.82
1006.79 1006.50 1006.23 1005.97 1005.71 1005.46 1005.21 1004.94 1004.66 1004.35 1004.02 1003.67 1003.33 1002.98 1002.65 1002.34 1002.05 1001.77 1001.49 1001.22 1000.94 1000.63 1000.31 999.97 999.62 999.29 998.98 998.71 998.52 998.40 998.37 998.44 998.59 998.81 999.09 999.42 999.78 1000.15
1006.68 1006.36 1006.07 1005.79 1005.52 1005.27 1005.02 1004.77 1004.49 1004.20 1003.88 1003.55 1003.20 1002.85 1002.52 1002.20 1001.89 1001.61 1001.33 1001.06 1000.79 1000.50 1000.19 999.86 999.52 999.19 998.87 998.59 998.36 998.20 998.13 998.13 998.22 998.38 998.61 998.88 999.20 999.54
1006.63 1006.29 1005.97 1005.67 1005.41 1005.16 1004.92 1004.68 1004.43 1004.15 1003.85 1003.52 1003.16 1002.80 1002.44 1002.09 1001.75 1001.44 1001.14 1000.85 1000.57 1000.28 999.99 999.68 999.36 999.04 998.73 998.46 998.22 998.05 997.94 997.91 997.94 998.05 998.22 998.44 998.70 999.01
1006.69 1006.32 1005.97 1005.65 1005.38 1005.14 1004.92 1004.70 1004.47 1004.22 1003.92 1003.59 1003.23 1002.84 1002.44 1002.05 1001.66 1001.30 1000.96 1000.64 1000.33 1000.03 999.74 999.44 999.15 998.86 998.58 998.32 998.10 997.93 997.81 997.75 997.75 997.81 997.93 998.10 998.31 998.58
1006.86 1006.44 1006.06 1005.73 1005.45 1005.22 1005.02 1004.82 1004.62 1004.39 1004.11 1003.78 1003.41 1002.99 1002.55 1002.11 1001.66 1001.24 1000.84 1000.47 1000.13 999.81 999.51 999.22 998.94 998.67 998.43 998.20 998.00 997.84 997.73 997.66 997.64 997.67 997.74 997.86 998.03 998.25
1007.12 1006.66 1006.24 1005.89 1005.60 1005.38 1005.20 1005.03 1004.86 1004.65 1004.39 1004.07 1003.69 1003.26 1002.79 1002.29 1001.79 1001.31 1000.85 1000.42 1000.04 999.68 999.36 999.06 998.79 998.54 998.32 998.11 997.94 997.80 997.69 997.62 997.59 997.60 997.65 997.74 997.87 998.05
1007.42 1006.92 1006.48 1006.11 1005.83 1005.62 1005.46 1005.32 1005.18 1005.00 1004.76 1004.46 1004.09 1003.64 1003.15 1002.62 1002.08 1001.55 1001.04 1000.56 1000.12 999.73 999.37 999.05 998.77 998.52 998.29 998.10 997.94 997.81 997.71 997.64 997.61 997.60 997.63 997.70 997.81 997.96
1007.71 1007.20 1006.75 1006.39 1006.12 1005.93 1005.79 1005.69 1005.57 1005.43 1005.22 1004.94 1004.58 1004.15 1003.66 1003.12 1002.55 1001.99 1001.44 1000.92 1000.43 999.99 999.59 999.24 998.92 998.64 998.40 998.20 998.03 997.89 997.79 997.71 997.67 997.66 997.68 997.73 997.83 997.97
1007.98 1007.49 1007.07 1006.73 1006.49 1006.33 1006.22 1006.15 1006.06 1005.95 1005.77 1005.51 1005.18 1004.76 1004.28 1003.75 1003.18 1002.61 1002.04 1001.49 1000.97 1000.48 1000.03 999.63 999.26 998.94 998.65 998.41 998.20 998.04 997.91 997.82 997.76 997.74 997.75 997.79 997.87 998.00
1008.23 1007.79 1007.43 1007.16 1006.96 1006.84 1006.77 1006.72 1006.66 1006.56 1006.40 1006.17 1005.85 1005.46 1005.00 1004.48 1003.93 1003.36 1002.79 1002.22 1001.68 1001.15 1000.66 1000.20 999.78 999.39 999.04 998.73 998.47 998.25 998.08 997.95 997.86 997.80 997.79 997.82 997.88 998.00
1008.48 1008.15 1007.88 1007.68 1007.56 1007.48 1007.45 1007.41 1007.36 1007.27 1007.11 1006.88 1006.57 1006.19 1005.74 1005.25 1004.72 1004.16 1003.60 1003.03 1002.48 1001.93 1001.40 1000.89 1000.40 999.94 999.51 999.13 998.79 998.49 998.25 998.06 997.91 997.82 997.76 997.76 997.80 997.89
1008.77 1008.57 1008.42 1008.32 1008.27 1008.25 1008.23 1008.21 1008.15 1008.03 1007.85 1007.60 1007.28 1006.89 1006.45 1005.96 1005.45 1004.92 1004.37 1003.82 1003.26 1002.70 1002.14 1001.59 1001.04 1000.51 1000.01 999.54 999.11 998.73 998.40 998.13 997.91 997.75 997.64 997.58 997.58 997.64
1009.12 1009.06 1009.04 1009.04 1009.07 1009.09 1009.09 1009.06 1008.97 1008.81 1008.58 1008.28 1007.92 1007.50 1007.04 1006.55 1006.04 1005.52 1004.99 1004.46 1003.91 1003.35 1002.78 1002.20 1001.62 1001.04 1000.46 999.91 999.40 998.93 998.51 998.14 997.84 997.60 997.41 997.29 997.24 997.25
Thickness
5630 5629 5627 5627 5625 5625 5624 5622 5619 5620 5624 5626 5626 5627 5626 5626 5625 5625 5626 5626 5625 5626 5628 5630 5632 5634 5637 5639 5641 5642 5643 5645 5646 5648 5649 5650 5651 5653
5624 5622 5621 5621 5620 5619 5617 5616 5614 5612 5614 5618 5618 5619 5618 5619 5617 5618 5619 5618 5618 5619 5621 5623 5625 5627 5630 5632 5634 5636 5638 5639 5640 5642 5643 5645 5646 5647
5619 5618 5616 5615 5614 5613 5611 5609 5608 5606 5605 5609 5610 5611 5609 5608 5610 5610 5612 5613 5615 5614 5615 5616 5618 5621 5623 5626 5628 5630 5632 5633 5634 5636 5637 5638 5639 5641
5615 5614 5612 5610 5608 5606 5604 5603 5601 5599 5598 5598 5600 5601 5600 5601 5601 5601 5605 5608 5609 5610 5610 5610 5612 5614 5617 5620 5622 5624 5625 5627 5628 5629 5630 5632 5633 5634
5611 5609 5607 5604 5601 5600 5597 5596 5595 5594 5592 5591 5593 5594 5594 5594 5593 5595 5597 5598 5602 5604 5603 5604 5606 5608 5610 5613 5615 5617 5619 5620 5622 5622 5623 5624 5626 5627
5607 5605 5602 5599 5596 5593 5591 5589 5587 5586 5586 5586 5586 5587 5586 5587 5586 5587 5589 5591 5594 5597 5598 5600 5601 5601 5604 5607 5608 5610 5612 5612 5614 5615 5616 5617 5619 5620
5603 5600 5597 5593 5589 5586 5585 5583 5581 5579 5580 5579 5579 5580 5580 5579 5579 5581 5582 5585 5587 5589 5591 5594 5596 5598 5600 5600 5601 5603 5604 5605 5606 5607 5609 5610 5611 5612
5597 5595 5593 5589 5585 5580 5576 5573 5571 5571 5572 5571 5572 5572 5571 5572 5573 5574 5575 5576 5578 5582 5582 5585 5588 5591 5593 5595 5596 5596 5596 5597 5597 5599 5600 5601 5603 5605
5593 5590 5589 5587 5581 5578 5574 5570 5567 5562 5560 5562 5564 5564 5564 5565 5564 5566 5567 5568 5570 5573 5574 5577 5580 5582 5585 5588 5588 5588 5588 5588 5589 5590 5591 5593 5594 5596
5589 5586 5582 5579 5576 5571 5570 5569 5566 5563 5560 5558 5557 5557 5557 5556 5556 5556 5557 5560 5563 5565 5566 5567 5572 5574 5577 5578 5577 5578 5579 5579 5580 5581 5582 5584 5585 5587
5586 5582 5578 5575 5567 5563 5564 5563 5561 5559 5557 5553 5551 5550 5549 5548 5548 5550 5553 5555 5557 5560 5561 5560 5563 5565 5567 5569 5569 5569 5569 5570 5571 5573 5574 5575 5576 5577
5583 5579 5572 5567 5561 5557 5558 5557 5555 5554 5552 5552 5548 5546 5546 5546 5543 5543 5546 5548 5551 5553 5555 5553 5555 5556 5558 5560 5561 5562 5562 5562 5563 5564 5566 5567 5568 5570
5580 5576 5570 5560 5556 5552 5549 5549 5546 5543 5545 5545 5544 5544 5543 5543 5542 5541 5540 5541 5542 5544 5546 5545 5546 5548 5549 5551 5554 5555 5556 5558 5558 5559 5559 5560 5561 5563
5572 5569 5564 5555 5551 5548 5546 5542 5538 5536 5540 5540 5539 5538 5538 5538 5537 5536 5535 5535 5535 5535 5536 5535 5536 5537 5539 5542 5544 5547 5549 5550 5552 5553 5556 5555 5554 5555
5567 5560 5556 5552 5549 5548 5543 5538 5536 5537 5537 5535 5534 5533 5532 5532 5531 5531 5530 5530 5530 5531 5531 5530 5530 5531 5531 5533 5536 5538 5540 5543 5544 5546 5548 5550 5552 5552
5565 5560 5554 5550 5548 5544 5541 5540 5537 5534 5532 5530 5529 5528 5528 5528 5527 5527 5526 5526 5526 5527 5527 5526 5524 5524 5525 5526 5527 5530 5532 5534 5537 5538 5540 5543 5546 5549
5557 5558 5556 5554 5550 5546 5543 5539 5535 5532 5528 5526 5524 5523 5523 5522 5522 5523 5521 5521 5520 5521 5521 5521 5520 5519 5519 5520 5522 5524 5525 5528 5530 5532 5533 5537 5540 5544
5553 5556 5553 5550 5547 5543 5540 5536 5532 5528 5525 5523 5521 5519 5518 5517 5517 5517 5516 5515 5515 5515 5515 5515 5515 5515 5515 5517 5516 5519 5521 5523 5525 5526 5528 5531 5535 5538
5553 5552 5548 5545 5542 5539 5536 5532 5528 5524 5521 5519 5516 5514 5513 5512 5511 5511 5510 5509 5509 5509 5508 5509 5509 5509 5510 5512 5515 5513 5516 5518 5519 5521 5524 5526 5530 5532
5554 5549 5546 5542 5537 5534 5531 5527 5523 5519 5516 5514 5511 5508 5507 5506 5506 5505 5504 5503 5502 5503 5503 5503 5503 5502 5503 5505 5508 5510 5509 5513 5514 5516 5519 5522 5524 5525
5553 5548 5544 5539 5534 5530 5526 5523 5519 5515 5511 5509 5506 5503 5502 5501 5501 5500 5499 5496 5495 5497 5497 5498 5497 5494 5498 5501 5503 5505 5508 5507 5509 5510 5513 5517 5520 5522
5551 5546 5541 5536 5531 5527 5523 5519 5516 5512 5508 5505 5502 5500 5498 5497 5496 5495 5495 5494 5494 5494 5493 5493 5493 5494 5495 5497 5499 5502 5504 5506 5505 5505 5505 5508 5512 5516
5548 5543 5539 5535 5530 5525 5521 5516 5512 5508 5504 5501 5499 5496 5495 5493 5492 5491 5490 5490 5490 5490 5489 5490 5491 5491 5492 5493 5496 5498 5501 5503 5505 5505 5505 5503 5502 5503